Regional Weather Roundup
Issued by NWS

Home | Current Version | Previous Version | Text Only | Print | Product List | Glossary On
Versions: 1 2 3 4 5 6 7 8 9 10 11 12 13 14 15 16 17 18 19 20 21 22 23 24 25 26 27 28 29 30 31 32 33 34 35 36 37 38 39 40 41 42 43 44 45 46 47 48 49 50
000
ASUS43 KDMX 170901
RWRIA

WEATHER ROUNDUP FOR IOWA
NATIONAL WEATHER SERVICE DES MOINES IA
300 AM CST TUE JAN 17 2017

NOTE: "FAIR" INDICATES FEW OR NO CLOUDS BELOW 12,000 FEET WITH NO
SIGNIFICANT WEATHER AND/OR OBSTRUCTIONS TO VISIBILITY.

* - THESE STATIONS ARE NOT NWS STATIONS...THUS NOT UNDER NWS
QUALITY CONTROL.  THEY ALSO DO NOT REPORT WEATHER SUCH
AS PRECIPITATION OR FOG.

IAZ001>003-012>014-020>022-031>034-043>046-171000-
   NORTHWEST IOWA

CITY           SKY/WX    TMP DP  RH WIND       PRES   REMARKS
CARROLL *      CLOUDY    34  34 100 NW12G20   29.94R WCI  25
CHEROKEE *     CLOUDY    32  32 100 N8        29.96R FOG     WCI  25
DENISON *      CLOUDY    32  32 100 NW8       29.94R FOG     WCI  25
LE MARS *      CLOUDY    27  25  93 W8        30.01R FOG     WCI  18
SHELDON *      MIX PCPN  30  30 100 NW12      29.95S WCI  21
SIOUX CITY     CLOUDY    24  20  84 NW16      30.01R WCI  11
SPENCER        CLOUDY    31  30  96 NW13      29.95R WCI  21
STORM LAKE *   CLOUDY    32  30  93 N13       29.93R WCI  22
$$

IAZ055>058-069>071-079>083-090>094-171000-
   SOUTHWEST IOWA

CITY           SKY/WX    TMP DP  RH WIND       PRES   REMARKS
ATLANTIC *     CLOUDY    34  32  93 NW15      29.95R WCI  24
AUDUBON *      CLOUDY    34  30  86 NW5       29.95R WCI  30
CLARINDA *     CLOUDY    34  34 100 NW8       29.99R WCI  27
COUNCIL BLFS * CLOUDY    32  32 100 NW13G18   29.98R WCI  22
CRESTON *      CLOUDY    32  32 100 NW14      29.93R FOG     WCI  22
HARLAN  *      CLOUDY    32  32 100 NW14      30.00R FOG     WCI  22
LAMONI         CLOUDY    33  32  96 W10       29.92R WCI  25
RED OAK *      CLOUDY    34  34 100 NW9       29.98R WCI  26
SHENANDOAH *   CLOUDY    34  32  93 NW9       30.00R FOG     WCI  26
$$

IAZ047>049-059>061-072>074-084-171000-
   CENTRAL IOWA

CITY           SKY/WX    TMP DP  RH WIND       PRES   REMARKS
AMES           CLOUDY    33  33 100 NW13      29.90R FOG     WCI  24
ANKENY *       CLOUDY    34  32  93 NW8       29.92R FOG     WCI  27
BOONE *        CLOUDY    32  32 100 NW8       29.90R WCI  25
CHARITON *     CLOUDY    34  32  93 NW12      29.90R FOG     WCI  25
DES MOINES     DRZL/FOG  34  33  96 NW12      29.92R VSB 3/4 WCI  25
GRINNELL*      FOG       32  32  99 W10       29.88R VSB 1/2 WCI  24
KNOXVILLE *    CLOUDY    34  34 100 NW12      29.88R FOG     WCI  25
MARSHALLTOWN   CLOUDY    32  32 100 NW9       29.87R FOG     WCI  24
NEWTON *       CLOUDY    32  32 100 NW12      29.88S FOG     WCI  23
PELLA *        CLOUDY    33  33  99 NW9       29.90R FOG     WCI  25
PERRY *        CLOUDY    33  33 100 NW12      29.92R FOG     WCI  24
$$

IAZ004>006-015-016-023>025-035-036-171000-
   NORTH CENTRAL IOWA

CITY           SKY/WX    TMP DP  RH WIND       PRES   REMARKS
ALGONA *       CLOUDY    32  32 100 N13G20    29.92R FOG     WCI  22
CLARION *      CLOUDY    32  32 100 N15       29.90R FOG     WCI  22
ESTHERVILLE    FOG       29  29 100 N14       29.93R VSB 1   WCI  18
FORT DODGE *   CLOUDY    32  28  86 CALM      29.93R
MASON CITY     CLOUDY    32  31  96 N12       29.89S WCI  23
FOREST CITY *  CLOUDY    32  32 100 N10       29.89S WCI  24
IOWA FALLS *   CLOUDY    33  33  97 NW7       29.89S FOG     WCI  27
$$

IAZ007>011-017>019-026>030-037>042-050>054-066-171000-
   NORTHEAST IOWA

CITY           SKY/WX    TMP DP  RH WIND       PRES   REMARKS
CEDAR RAPIDS   FOG       33  33 100 NW6       29.84R VSB 1/2 WCI  28
CHARLES CITY * MIX PCPN  32  32 100 MISG      29.87S
CLINTON *      FOG       34  33  96 W8        29.83R VSB 3/4 WCI  27
DECORAH *      FOG       32  32 100 N6        29.84S VSB 1/4 WCI  26
DUBUQUE        FOG       33  33 100 N6        29.81S VSB 1/4 WCI  28
MONTICELLO *   CLOUDY    34  34 100 CALM      29.83R FOG
OELWEIN *      FOG       32  32 100 N7        29.86R VSB 1/4 WCI  26
WATERLOO       CLOUDY    33  32  96 NW7       29.87R FOG     WCI  27
$$

IAZ064-065-067-068-078-171000-
   EAST CENTRAL IOWA

CITY           SKY/WX    TMP DP  RH WIND       PRES   REMARKS
DAVENPORT      FOG       34  33  96 W7        29.83R VSB 3/4 WCI  28
IOWA CITY      CLOUDY    35  34  96 NW3       29.87R FOG
MUSCATINE *    CLOUDY    36  34  93 SW7       29.86R FOG     WCI  30
QUAD CITIES    FOG       36  34  92 W6        29.83R VSB 1/2 WCI  31
$$

IAZ062-063-075>077-085>089-095>099-171000-
   SOUTHEAST IOWA

CITY           SKY/WX    TMP DP  RH WIND       PRES   REMARKS
BURLINGTON     FOG       38  38 100 W8        29.86R VSB 3/4 WCI  32
FAIRFIELD *    FOG       34  34 100 W9        29.87R VSB 1   WCI  26
KEOKUK *       CLOUDY    41  41 100 W12       29.87R FOG
OTTUMWA        CLOUDY    34  34 100 W8        29.87R WCI  27
WASHINGTON *   FOG       36  36 100 W6        29.87S VSB 1/2 WCI  31
$$

ABBREVIATIONS USED IN REMARKS
   TC - TEMPERATURES IN CELSIUS
  WCI - WIND CHILL INDEX
   HX - HEAT INDEX
  VSB - VISIBILITY
$$





USA.gov is the U.S. government's official web portal to all federal, state and local government web resources and services.